Probability
0 0 0 0 0 0 0 0 0 0 0 0 0 0 0 0 0 0 0 0 0 0 0 0 0 0 0 0 0 0 0 0 0 0 0 0 0 0 0 0 0 0 0
0 0 0 0 0 0 0 0 0 0 0 0 0 0 0 0 0 0 0 0 0 0 0 0 0 0 0 0 0 0 0 0 0 0 0 0 0 0 0 0 0 0 0
0 0 0 0 0 0 0 0 0 0 0 0 0 0 0 0 0 0 0 0 0 0 0 0 0 0 0 0 0 0 0 0 0 0 0 0 0 0 0 0 0 0 0
0 0 0 0 0 0 0 0 0 0 0 0 0 0 0 0 0 0 0 0 0 0 0 0 0 0 0 0 0 0 0 0 0 0 0 0 0 0 0 0 0 0 0
0 0 0 0 0 0 0 0 0 0 0 0 0 0 0 0 0 0 0 0 0 0 0 0 0 0 0 0 0 0 0 0 0 0 0 0 0 0 0 0 0 0 0
0 0 0 0 0 0 0 0 0 0 0 0 0 0 0 0 0 0 0 0 0 0 0 0 0 0 0 0 0 0 0 0 0 0 0 0 0 0 0 0 0 0 0
0 0 0 0 0 0 0 0 0 0 0 0 0 0 0 0 0 0 0 0 0 0 0 0 0 0 0 0 0 0 0 0 0 0 0 0 0 0 0 0 0 0 0
0 0 0 0 0 0 0 0 0 0 0 0 0 0 0 0 0 0 0 0 0 0 0 0 0 0 0 0 0 0 0 0 0 0 0 0 0 0 0 0 0 0 0
0 0 0 0 0 0 0 0 0 0 0 0 0 0 0 0 0 0 0 0 0 0 0 0 0 0 0 0 0 0 0 0 0 0 0 0 0 0 0 0 0 0 0
0 0 0 0 0 0 0 0 0 0 0 0 0 0 0 0 0 0 0 0 0 0 0 0 0 0 0 0 0 0 0 0 0 0 0 0 0 0 0 0 0 0 0
0 0 0 0 0 0 0 0 0 0 0 0 0 0 0 0 0 0 0 0 0 0 0 0 0 0 0 0 0 0 0 0 0 0 0 0 0 0 0 0 0 0 0
0 0 0 0 0 0 0 0 0 0 0 0 0 0 0 0 0 0 0 0 0 0 0 0 0 0 0 0 0 0 0 0 0 0 0 0 0 0 0 0 0 0 0
0 0 0 0 0 0 0 0 0 0 0 0 0 0 0 0 0 0 0 0 0 0 0 0 0 0 0 0 0 0 0 0 0 0 0 0 0 0 0 0 0 0 0
0 0 0 0 0 0 0 0 0 0 0 0 0 0 0 0 0 0 0 0 0 0 0 0 0 0 0 0 0 0 0 0 0 0 0 0 0 0 0 0 0 0 0
0 0 0 0 0 0 0 0 0 0 0 0 0 0 0 0 0 0 0 0 0 0 0 0 0 0 0 0 0 0 0 0 0 0 0 0 0 0 0 0 0 0 0
0 0 0 0 0 0 0 0 0 0 0 0 0 0 0 0 0 0 0 0 0 0 0 0 0 0 0 0 0 0 0 0 0 0 0 0 0 0 0 0 0 0 0
0 0 0 0 0 0 0 0 0 0 0 0 0 0 0 0 0 0 0 0 0 0 0 0 0 0 0 0 0 0 0 0 0 0 0 0 0 0 0 0 0 0 0
0 0 0 0 0 0 0 0 0 0 0 0 0 0 0 0 0 0 0 0 0 0 0 0 0 0 0 0 0 0 0 0 0 0 0 0 0 0 0 0 0 0 0
0 0 0 0 0 0 0 0 0 0 0 0 0 0 0 0 0 0 0 0 0 0 0 0 0 0 0 0 0 0 0 0 0 0 0 0 0 0 0 0 0 0 0
0 0 0 0 0 0 0 0 0 0 0 0 0 0 0 0 0 0 0 0 0 0 0 0 0 0 0 0 0 0 0 0 0 0 0 0 0 0 0 0 0 0 0
0 0 0 0 0 0 0 0 0 0 0 0 0 0 0 0 0 0 0 0 0 0 0 0 0 0 0 0 0 0 0 0 0 0 0 0 0 0 0 0 0 0 0
0 0 0 0 0 0 0 0 0 0 0 0 0 0 0 0 0 0 0 0 0 0 0 0 0 0 0 0 0 0 0 0 0 0 0 0 0 0 0 0 0 0 0
0 0 0 0 0 0 0 0 0 0 0 0 0 0 0 0 0 0 0 0 0 0 0 0 0 0 0 0 0 0 0 0 0 0 0 0 0 0 0 0 0 0 0
0 0 0 0 0 0 0 0 0 0 0 0 0 0 0 0 0 0 0 0 0 0 0 0 0 0 0 0 0 0 0 0 0 0 0 0 0 0 0 0 0 0 0
0 0 0 0 0 0 0 0 0 0 0 0 0 0 0 0 0 0 0 0 0 0 0 0 0 0 0 0 0 0 0 0 0 0 0 0 0 0 0 0 0 0 0
0 0 0 0 0 0 0 0 0 0 0 0 0 0 0 0 0 0 0 0 0 0 0 0 0 0 0 0 0 0 0 0 0 0 0 0 0 0 0 0 0 0 0
Height
5634 5634 5633 5632 5631 5631 5630 5629 5629 5628 5628 5628 5628 5629 5629 5628 5628 5628 5629 5630 5630 5631 5632 5632 5633 5634 5635 5636 5636 5637 5637 5637 5637 5638 5636 5635 5634 5633 5632 5630 5629 5627 5625
5623 5623 5622 5621 5620 5619 5619 5618 5618 5618 5618 5618 5618 5618 5618 5618 5617 5617 5618 5619 5619 5620 5620 5621 5622 5623 5623 5624 5625 5625 5625 5625 5625 5626 5625 5624 5623 5622 5620 5619 5617 5615 5613
5612 5612 5611 5610 5609 5608 5608 5607 5607 5607 5607 5607 5607 5607 5607 5607 5607 5607 5608 5608 5609 5609 5610 5610 5611 5612 5613 5613 5613 5614 5614 5614 5613 5614 5614 5612 5611 5610 5609 5607 5605 5603 5601
5601 5601 5600 5599 5598 5597 5597 5597 5596 5596 5597 5597 5597 5597 5597 5597 5597 5597 5598 5598 5599 5599 5599 5600 5600 5601 5602 5602 5602 5602 5602 5602 5602 5602 5602 5601 5600 5599 5597 5596 5594 5591 5589
5590 5589 5589 5588 5588 5587 5586 5586 5586 5586 5586 5586 5586 5586 5587 5587 5587 5588 5588 5588 5589 5589 5589 5590 5590 5590 5591 5591 5591 5592 5592 5591 5591 5590 5590 5589 5589 5587 5586 5585 5583 5580 5578
5580 5579 5578 5578 5577 5576 5576 5576 5575 5575 5575 5576 5576 5576 5577 5577 5578 5578 5578 5579 5579 5579 5580 5580 5580 5580 5580 5581 5581 5581 5581 5581 5580 5579 5579 5578 5577 5576 5575 5573 5571 5569 5567
5570 5569 5568 5567 5567 5566 5565 5565 5565 5565 5565 5565 5565 5566 5567 5568 5568 5569 5569 5569 5569 5570 5570 5570 5570 5570 5570 5571 5571 5571 5571 5570 5569 5569 5568 5567 5566 5566 5564 5563 5560 5557 5555
5560 5559 5558 5557 5557 5556 5556 5555 5555 5555 5555 5555 5555 5556 5557 5558 5559 5559 5559 5559 5560 5560 5560 5560 5560 5560 5560 5561 5561 5561 5560 5560 5559 5559 5558 5557 5555 5554 5552 5551 5549 5547 5545
5550 5549 5549 5548 5547 5547 5547 5546 5546 5545 5545 5545 5546 5547 5548 5549 5549 5550 5550 5550 5550 5550 5550 5550 5550 5550 5550 5551 5551 5551 5551 5550 5549 5548 5547 5545 5544 5542 5541 5539 5538 5536 5534
5541 5540 5539 5539 5538 5538 5538 5537 5537 5536 5536 5536 5537 5537 5538 5539 5540 5540 5540 5540 5541 5541 5541 5541 5540 5540 5540 5540 5541 5541 5540 5540 5539 5538 5536 5535 5533 5532 5530 5528 5527 5525 5523
5531 5531 5530 5530 5529 5529 5528 5528 5527 5527 5527 5528 5528 5529 5530 5530 5531 5531 5531 5531 5531 5531 5531 5531 5531 5531 5530 5530 5531 5531 5530 5530 5529 5528 5527 5525 5524 5522 5520 5518 5516 5514 5512
5522 5522 5521 5521 5520 5520 5519 5519 5519 5518 5519 5519 5520 5520 5521 5521 5521 5521 5521 5521 5522 5522 5522 5522 5521 5521 5521 5521 5521 5521 5520 5520 5519 5518 5517 5516 5514 5512 5510 5508 5505 5503 5501
5513 5512 5512 5511 5511 5511 5511 5510 5510 5510 5511 5511 5512 5512 5512 5512 5512 5512 5512 5512 5512 5512 5512 5512 5512 5511 5511 5512 5511 5511 5510 5510 5509 5508 5508 5506 5504 5502 5500 5498 5496 5494 5491
5503 5503 5503 5502 5503 5502 5502 5502 5502 5502 5503 5503 5503 5504 5504 5504 5503 5503 5503 5503 5503 5503 5503 5502 5502 5502 5502 5502 5502 5502 5501 5500 5500 5499 5498 5496 5494 5492 5490 5489 5487 5485 5483
5495 5494 5494 5494 5494 5494 5494 5494 5494 5494 5494 5494 5495 5495 5495 5495 5495 5494 5494 5494 5494 5494 5494 5494 5494 5494 5494 5494 5493 5493 5492 5491 5490 5489 5488 5487 5485 5483 5481 5479 5477 5476 5474
5486 5486 5486 5486 5486 5485 5485 5485 5485 5486 5486 5486 5486 5486 5486 5486 5486 5486 5486 5486 5486 5486 5486 5485 5486 5486 5486 5485 5485 5485 5484 5482 5481 5480 5479 5477 5476 5475 5473 5471 5469 5468 5466
5478 5478 5478 5478 5477 5477 5477 5477 5478 5478 5477 5477 5478 5478 5478 5478 5478 5478 5478 5478 5478 5478 5478 5478 5478 5478 5478 5478 5477 5476 5475 5474 5472 5471 5470 5469 5468 5466 5465 5463 5461 5460 5459
5470 5470 5470 5470 5470 5470 5470 5470 5470 5470 5469 5469 5470 5469 5470 5470 5470 5470 5470 5470 5470 5470 5470 5471 5471 5471 5471 5470 5470 5468 5467 5466 5465 5464 5463 5461 5460 5459 5457 5456 5454 5453 5451
5463 5463 5462 5462 5462 5462 5462 5462 5462 5462 5462 5462 5462 5462 5462 5462 5462 5462 5463 5463 5463 5464 5464 5464 5464 5464 5463 5463 5462 5461 5460 5459 5458 5457 5456 5455 5453 5452 5450 5449 5447 5446 5445
5455 5455 5455 5455 5455 5455 5454 5454 5454 5454 5454 5454 5454 5454 5454 5455 5455 5456 5456 5456 5457 5457 5457 5457 5457 5456 5456 5456 5455 5454 5453 5453 5452 5451 5449 5448 5447 5445 5443 5442 5441 5440 5438
5448 5447 5447 5447 5447 5447 5447 5447 5447 5446 5446 5446 5447 5447 5447 5448 5448 5449 5449 5449 5450 5450 5450 5450 5450 5449 5449 5448 5448 5447 5447 5446 5445 5444 5443 5442 5441 5439 5438 5436 5435 5434 5432
5440 5441 5441 5440 5440 5440 5440 5440 5440 5440 5439 5439 5440 5440 5440 5441 5442 5442 5442 5443 5443 5443 5443 5443 5443 5442 5442 5441 5441 5441 5440 5439 5439 5438 5437 5436 5435 5434 5432 5431 5429 5428 5427
5434 5434 5434 5434 5434 5434 5434 5434 5433 5433 5433 5433 5433 5433 5434 5435 5435 5436 5436 5437 5437 5437 5437 5437 5436 5436 5435 5435 5435 5435 5434 5434 5433 5433 5432 5431 5430 5429 5428 5426 5425 5423 5422
5427 5428 5428 5428 5428 5428 5428 5427 5427 5427 5427 5427 5427 5428 5428 5429 5430 5430 5431 5431 5431 5431 5431 5431 5431 5430 5430 5430 5429 5429 5429 5429 5428 5427 5427 5426 5425 5424 5423 5422 5420 5419 5418
5422 5422 5422 5422 5422 5422 5422 5422 5422 5422 5422 5422 5422 5423 5423 5424 5424 5425 5425 5425 5425 5425 5425 5425 5425 5425 5425 5425 5425 5424 5424 5424 5423 5423 5422 5421 5421 5420 5419 5418 5417 5415 5414
5416 5416 5416 5417 5417 5417 5417 5417 5417 5417 5417 5417 5418 5418 5419 5419 5419 5420 5420 5420 5420 5420 5420 5420 5420 5420 5420 5420 5420 5420 5420 5419 5419 5418 5418 5417 5417 5416 5415 5414 5413 5412 5411
Wind_Speed
39 39 40 40 39 39 40 39 39 39 39 39 38 38 38 39 41 42 43 43 43 43 43 44 44 44 45 44 43 43 43 43 43 42 43 42 42 42 43 43 44 45 46
39 39 40 40 40 39 40 40 39 39 39 38 38 37 38 38 39 40 41 41 41 41 41 41 42 42 43 43 43 43 43 43 43 42 43 42 42 43 43 43 44 45 46
39 39 39 39 39 39 38 38 39 38 38 38 37 37 37 38 38 38 38 38 38 38 39 40 41 41 41 41 41 42 43 42 42 42 42 42 42 42 42 42 44 45 46
40 39 39 38 38 37 37 37 37 37 37 36 36 36 37 37 37 37 37 37 37 38 38 39 40 40 39 39 39 40 40 40 41 42 42 42 42 42 42 42 43 44 45
38 38 38 38 37 37 37 37 36 36 36 36 36 36 36 35 35 35 36 36 36 37 37 37 37 38 38 38 38 38 38 39 39 40 41 41 41 41 42 43 43 44 44
36 37 37 37 36 36 36 36 36 36 36 36 36 36 35 34 34 34 35 36 36 36 36 36 37 37 37 37 36 37 37 38 38 38 39 40 41 42 43 42 43 43 43
34 35 35 35 35 35 35 35 35 35 35 36 36 35 35 34 34 34 34 35 35 35 35 35 35 35 35 36 36 37 37 37 37 38 39 40 41 42 42 43 42 42 42
33 33 33 33 33 33 33 34 34 34 34 34 35 35 34 34 35 35 35 35 35 35 34 34 35 35 35 34 35 37 37 37 37 38 39 39 40 41 41 41 42 42 42
32 32 32 31 32 32 32 32 33 34 33 33 33 33 34 34 34 34 34 34 34 33 33 34 34 35 35 35 36 37 38 38 37 38 38 39 39 40 40 40 40 40 40
31 31 31 32 31 31 31 32 32 32 32 32 32 32 32 33 33 33 34 34 34 33 33 34 35 35 35 35 36 36 37 37 36 37 37 38 38 38 39 39 39 39 39
31 31 31 31 31 31 31 32 32 32 31 31 31 31 31 31 32 33 33 34 33 34 33 33 33 33 34 34 35 35 36 35 36 36 37 37 38 38 38 38 38 38 38
32 32 32 31 31 31 32 32 31 30 30 30 30 30 30 31 32 32 33 33 33 33 33 33 33 32 33 33 33 33 34 35 35 36 36 37 38 38 38 38 38 37 36
32 31 31 31 30 30 30 31 30 29 29 29 29 29 30 31 31 31 32 32 33 33 32 32 32 31 32 32 32 32 33 33 34 35 35 36 36 36 37 36 36 35 34
30 30 30 30 29 30 30 30 29 29 29 29 30 30 30 30 30 30 31 31 31 31 31 31 32 31 32 32 32 33 33 33 33 34 34 35 35 35 35 34 34 33 32
29 29 29 29 28 28 28 28 29 29 30 30 29 30 30 29 29 29 29 29 29 29 30 30 30 30 30 31 30 31 31 31 32 33 33 33 33 33 32 32 31 31 30
28 28 28 28 28 28 28 27 28 28 28 28 29 29 29 29 29 29 29 29 29 29 28 29 29 28 29 29 29 29 29 30 30 31 31 31 31 31 30 30 29 29 28
27 27 27 28 27 26 27 27 27 27 27 27 28 28 28 28 28 28 27 28 28 28 28 28 28 27 27 27 27 27 28 28 29 29 29 28 28 28 28 28 27 27 27
27 26 26 26 26 25 25 26 26 26 26 26 27 27 27 27 27 27 26 26 26 26 25 25 24 24 24 24 25 25 26 26 27 27 27 27 27 26 26 26 26 26 25
26 25 25 24 24 24 25 25 25 25 26 26 26 26 26 26 25 25 24 25 24 23 24 23 23 23 23 23 24 24 24 24 25 25 25 25 25 24 24 24 24 23 22
25 24 24 24 24 24 24 24 24 24 25 24 24 24 24 24 23 23 23 23 23 23 23 24 24 24 24 23 23 23 23 23 23 23 23 22 22 21 21 22 22 21 21
24 23 23 23 23 23 23 23 24 24 24 23 23 22 23 22 22 23 22 22 22 22 22 23 23 22 23 23 23 23 22 22 22 21 21 20 20 20 19 20 20 20 19
22 22 22 22 22 22 22 22 22 22 22 22 22 22 22 22 22 22 21 21 21 21 22 22 21 21 21 21 21 21 21 21 20 19 19 19 19 18 18 18 18 18 17
21 21 21 20 20 20 20 20 20 20 20 20 20 20 20 20 20 20 20 20 20 20 20 20 20 19 19 19 18 18 18 18 18 18 18 17 17 17 17 17 17 16 16
20 20 20 20 19 18 18 19 19 19 19 18 18 18 18 18 18 18 18 18 18 18 18 18 18 17 17 16 15 15 15 16 16 16 16 16 15 16 15 15 15 15 14
19 18 18 17 18 18 17 17 17 17 16 17 17 16 16 17 17 16 16 16 16 15 16 16 16 15 14 14 14 14 14 15 15 14 14 13 13 14 14 14 14 13 13
18 17 17 17 16 16 16 16 15 15 15 15 15 15 15 15 15 15 15 14 14 14 14 14 14 14 14 13 13 14 14 13 13 13 13 13 13 13 13 13 12 12 12
Wind_Direction
270 271 272 273 273 273 272 272 271 269 267 267 267 267 268 269 268 266 266 266 266 267 266 265 265 265 265 266 266 268 270 271 271 272 274 275 275 275 274 276 277 279 281
270 271 271 273 273 273 271 270 270 268 267 268 268 268 268 268 267 266 266 266 267 267 266 266 266 265 266 266 267 268 269 271 272 272 273 275 275 275 276 276 278 280 281
270 270 271 272 273 271 270 270 270 268 268 268 267 268 268 267 266 266 266 266 266 266 267 267 267 266 266 267 268 269 270 271 272 272 272 273 274 276 277 279 280 281 281
270 270 271 271 272 271 270 270 269 268 267 267 267 267 267 266 265 265 266 265 266 267 268 268 268 267 267 268 269 271 271 271 272 272 273 273 274 276 277 280 281 283 282
270 270 270 271 271 270 270 269 269 268 268 267 267 267 266 265 264 264 265 266 267 267 268 269 269 267 267 268 269 270 271 271 272 273 273 273 274 275 278 281 282 282 283
271 271 270 270 271 270 269 268 268 268 267 266 266 265 264 264 264 265 265 266 267 268 269 269 269 267 267 268 269 270 271 271 272 274 275 275 275 277 278 281 283 283 283
271 271 270 270 270 269 268 268 268 267 266 266 264 262 262 263 264 265 266 267 268 269 269 268 269 267 266 268 269 271 272 272 275 276 276 276 277 278 279 281 283 284 285
271 272 272 271 270 269 268 269 268 267 267 266 263 261 261 262 264 266 268 268 268 269 269 268 270 269 267 269 270 272 273 274 276 276 277 278 279 280 281 283 284 284 285
271 271 272 271 270 269 269 269 269 268 267 265 262 261 261 262 263 265 267 267 267 268 268 269 270 270 267 268 270 272 274 275 276 277 278 280 280 281 282 283 284 285 285
271 272 271 271 270 269 269 269 269 268 267 264 262 262 262 263 264 265 266 266 267 267 269 269 270 269 267 269 270 273 275 275 276 278 279 281 281 282 283 284 285 285 286
270 272 271 270 269 269 268 269 269 268 265 263 262 262 263 263 264 265 266 267 268 268 268 270 269 268 268 269 271 274 276 276 276 277 279 280 281 282 284 285 286 286 286
271 271 270 270 269 268 267 268 268 266 263 263 263 264 264 264 265 266 267 267 268 269 269 269 268 268 268 269 271 274 275 275 276 278 279 281 282 282 283 284 286 286 286
271 271 270 269 268 266 267 267 266 263 262 264 264 264 264 265 267 268 268 269 269 269 270 269 268 269 268 269 271 273 275 276 276 278 279 281 282 283 283 284 285 285 285
270 269 268 267 266 266 267 266 264 262 262 263 263 263 265 266 267 268 269 268 269 270 271 270 268 268 268 270 273 274 275 277 277 278 280 282 283 284 285 284 284 284 283
268 269 268 267 266 266 265 264 264 263 263 262 263 264 264 266 267 268 268 268 269 271 270 269 268 267 269 270 273 275 276 277 279 280 281 282 284 285 285 284 284 283 283
269 270 270 269 269 266 264 264 264 265 264 263 264 265 264 265 266 266 267 268 268 269 269 268 267 269 270 271 273 275 277 279 280 281 281 281 282 283 284 284 283 282 283
271 271 270 271 269 266 265 266 266 266 266 266 265 265 264 265 265 265 265 267 268 271 270 269 268 269 271 272 274 277 279 280 281 281 281 282 282 283 283 283 283 282 283
272 271 270 270 268 267 267 267 267 267 266 266 265 264 264 264 266 266 265 267 269 271 271 269 269 271 273 274 277 279 280 281 282 282 282 282 283 283 282 282 283 282 283
270 270 269 268 266 266 266 266 266 266 265 266 266 265 264 264 264 265 265 267 268 270 270 269 270 272 274 276 279 280 280 281 281 282 283 284 283 282 283 283 284 284 285
269 269 267 266 265 265 265 266 266 265 265 266 265 263 263 264 264 264 266 267 268 269 270 269 272 273 274 276 278 279 279 279 281 283 284 284 284 286 286 286 286 286 287
267 267 268 268 266 265 265 267 267 267 266 265 264 262 261 261 262 264 267 268 270 271 272 273 274 274 275 277 277 277 277 278 281 284 284 284 286 288 289 290 289 288 288
266 266 267 268 266 266 266 267 267 268 267 266 264 261 260 260 261 263 266 268 270 272 273 274 275 275 276 277 277 277 277 278 280 281 282 284 287 288 289 291 291 289 289
265 265 266 267 267 268 268 268 268 268 267 267 265 262 260 260 261 263 266 269 271 272 271 273 275 275 275 274 275 276 277 277 278 280 282 283 285 287 289 291 292 290 288
266 266 266 265 265 268 269 269 269 268 267 266 265 263 261 261 263 265 267 268 270 271 271 273 273 274 273 273 273 274 275 277 278 280 282 283 284 286 288 290 292 292 290
266 267 266 264 263 265 268 268 267 266 266 266 264 263 262 262 264 265 267 268 269 270 271 272 272 271 270 270 270 271 273 275 275 277 280 282 284 287 289 290 291 292 291
267 266 264 263 264 265 265 264 264 265 265 265 262 262 261 261 262 264 266 267 267 269 271 270 269 268 267 268 270 272 274 274 274 276 279 282 284 285 287 287 288 289 291